WESTFORD NEEDLES, 2375

Orbit data source: Space-Track

WESTFORD NEEDLES, 2375 is space debris in LEO originally from a launch on Thu, 09 May 1963 UTC launched from the Air Force Western Test Range (AFWTR). Debris objects in space refer to the collection of defunct objects orbiting the Earth. Examples of debris include non-operational satellites, rocket bodies, and fragments generated from explosions, collisions, or faulty payload assembly.

Loading next visibility...
Identifier
2375, 1963-014W
Orbit
LEO
Country
Flag of USUS
Related business
Manufacturer
Unknown
Mission
Spacecraft
Bus & Motor
Unknown
Mass
Unknown
Launch date (UTC)
1963-05-09 (63 years ago)
Launch vehicle
Unknown
Launch site
Air Force Western Test Range (AFWTR)
Object type
Payload
Rocket body
Debris
Shape & HBR
Unknown shape, 0.3 m
Radar Cross Section
Medium (>0.1 m² and <1 m²)

Expand to show TLE details & history
Last TLE update: 1 day ago

TLE from 1 day ago
0 WESTFORD NEEDLES
1 02375U 63014W   25340.26022791  .00000173  00000-0  18995-1 0  9998
2 02375  86.4881  78.3311 1612592  28.6495 339.4109  8.74781812354554
Epoch: 2025-12-06T06:14Z
TLE epoch observation values (Epoch: 2025-12-06T06:14:43.691Z)
Latitude
0.00001°
Longitude
-90.64147°
Altitude
2,112.325 km
Speed
7.339 km/s
True Right ascension
05h 13m 19s
True Declination
0° 00' 00"
Sunlit
Object was in full shadow at epoch
Visualization orbit readout
Latitude
Unknown
Longitude
Unknown
Altitude
Unknown
Speed
Unknown
Apparent Right ascension
Unknown
Apparent Declination
Unknown
Sunlit
N/A
Visualization observer readout
Local Sidereal Time
09:11:00
Azimuth
Unknown
Elevation
Unknown
Doppler factor
Unknown
Orbital elements
Apogee altitude
5,173.195 km
Perigee altitude
1,965.025 km
Semi-major axis
9,947.247 km
Eccentricity
0.16126
Inclination
86.4881°
RAAN
78.3311°
Arg. of periapsis
28.6495°
True anomaly
331.44508°
Mean anomaly
339.4109°
Eccentric anomaly
335.59301°
Mean motion
2.18771 °/min
Orbital period
164.56 mins
BSTAR
0.018995

Documentation

Showing up to 5 results
|